Key statistics
Satellite CHUBUSAT 1 at a glance.
Uptime
3724
Days in orbit
Revolutions
≈ 16.5
Per day
Orbit
SSO
Sun Synchronous Orbit
Inclination
97.0
Latest
Satellite identification and parameters
Extended collection of information and parameters for CHUBUSAT 1.
Object identification
Identified? True
Debris? False
Object name: CHUBUSAT 1
International designator: 2014-070C
Object number (NORAD): 40300
Object ID (CCSDS): 40300
Country: JAPAN (JPN)
Current information (Y/N): Y
RCS size: MEDIUM
Orbital parameters
Decay date: Jan. 16, 2025
Period: 87.151 minutes
Inclination: 97.0264 deg
SMA: 6511.403 km
Apoapsis: 139.228 km
Periapsis: 127.308 km
RAAN: 61.4205 deg
Eccentricy: 0.0009153
Argument of periapsis: 258.8077 deg
Mean anomaly: 101.2201 deg
Mean motion: 16.52307711 rev/day
Mean motion (dot): 0.14599716 rev/day2
B* drag term: 0.00011754 1/REarth
Two-line elements (TLE)
Creation date: Jan. 15, 2025, 5:55 p.m.
Reference frame: TEME
Reference center: EARTH
Epoch: Jan. 12, 2025, 4:46 p.m. UTC
TLE line 0: 0 CHUBUSAT 1
TLE line 1: 1 40300U 14070C 25012.69875439 .14599716 24063-5 11754-3 0 9993
TLE line 2: 2 40300 97.0264 61.4205 0009153 258.8077 101.2201 16.52307711567468
Live tracking on map
Satellite CHUBUSAT 1 has decayed and is no longer in orbit. No tracking available.
In-orbit conjunctions
Satellite CHUBUSAT 1 has decayed and is no longer in orbit. No conjunctions available.
Associated space launch
CHUBUSAT 1 was lifted into orbit during the mission ‘Dnepr 1 | ASNARO’, on board a Dnepr space rocket.
The launch took place on Nov. 6, 2014, 7:35 a.m. from 370/13.
For more information about the launch, click the button.
Dnepr 1 | ASNARO
Agency: N/A
Status: Launch Successful
Launch date: Nov. 6, 2014, 7:35 a.m. UTC
Rocket: Dnepr
Launch pad: 370/13
Location: Dombarovskiy, Russian Federation
...
Latest news about this satellite
There are no fresh news available about this satellite. Check back as we update our databases every day.
Newsletter sign-up
Weekly statistics, charts and insights to help you stay on top of the space industry.
